Showing default

OPS 5712 (P/L 152), 2873

Orbit data source: Space-Track

OPS 5712 (P/L 152), 2873 is an American payload satellite in LEO that was launched on Wed, 31 May 1967 UTC via a THOR SLV-2 AGENA D launch vehicle from the Air Force Western Test Range (AFWTR). Payload-class satellites include a variety of spacecraft equipped with specific instruments for various scientific and technological missions. These include communications satellites like Starlink; space stations such as the ISS; scientific satellites like the Hubble; Earth observation satellites from companies like Planet Labs, Umbra, and HawkEye 360; GPS; miniature CubeSats for education and research; and military/defense satellites.

Loading next visibility...
Identifier
2873, 1967-053G
Orbit
LEO
Country
Flag of USUS
Related business
Manufacturer
NRL
Mission
Spacecraft
Bus & Motor
NRL 24", Unknown motor
Mass
52 kg wet, 52 kg dry
Launch date (UTC)
1967-05-31 (59 years ago)
Launch vehicle
THOR SLV-2 AGENA D
Launch site
Air Force Western Test Range (AFWTR)
Object type
Payload
Rocket body
Debris
Shape & HBR
ELL + ANT, 1.1 m
Radar Cross Section
Medium (>0.1 m² and <1 m²)

Expand to show TLE details & history
Last TLE update: 19 hours ago

TLE from 19 hours ago
0 OPS 5712 (P/L 152)
1 02873U 67053G   26263.51518697  .00000032  00000-0  59833-4 0  9999
2 02873  69.9740 205.1207 0006988   8.2516 108.8863 13.98543977 21831
Epoch: 2026-09-20T12:21Z
TLE epoch observation values (Epoch: 2026-09-20T12:21:52.154Z)
Latitude
56.78374°
Longitude
166.62195°
Altitude
909.383 km
Speed
7.402 km/s
True Right ascension
23h 25m 59s
True Declination
56° 37' 45"
Sunlit
Object was in full shadow at epoch
Visualization orbit readout
Latitude
Unknown
Longitude
Unknown
Altitude
Unknown
Speed
Unknown
Apparent Right ascension
Unknown
Apparent Declination
Unknown
Sunlit
N/A
Visualization observer readout
Local Sidereal Time
00:08:10
Azimuth
Unknown
Elevation
Unknown
Doppler factor
Unknown
Orbital elements
Apogee altitude
901.969 km
Perigee altitude
891.801 km
Semi-major axis
7,275.022 km
Eccentricity
0.0007
Inclination
69.974°
RAAN
205.1207°
Arg. of periapsis
8.2516°
True anomaly
108.96204°
Mean anomaly
108.8863°
Eccentric anomaly
108.92417°
Mean motion
3.49777 °/min
Orbital period
102.92 mins
BSTAR
0.000059833
Loading maneuver chart data...
Computing Atmospheric mass density...
Loading historical data...
Loading historical data...
Loading historical data...
Loading historical data...
Loading historical data...
Loading historical data...
Loading historical data...

Documentation

Showing up to 5 results
|